TimeCST,TemperatureF,Dew PointF,Humidity,Sea Level PressureIn,VisibilityMPH,Wind Direction,Wind SpeedMPH,Gust SpeedMPH,PrecipitationIn,Events,Conditions,WindDirDegrees,DateUTC
12:15 AM,-0.4,-4.0,85,29.89,10.0,Calm,Calm,-,N/A,,Clear,0,2013-02-05 06:15:00
12:35 AM,1.4,-2.2,85,29.87,10.0,Calm,Calm,-,N/A,,Clear,0,2013-02-05 06:35:00
12:55 AM,1.4,-2.2,85,29.85,10.0,Calm,Calm,-,N/A,,Clear,0,2013-02-05 06:55:00
1:15 AM,1.4,-0.4,92,29.85,10.0,Calm,Calm,-,N/A,,Clear,0,2013-02-05 07:15:00
1:35 AM,3.2,-0.4,85,29.84,10.0,Calm,Calm,-,N/A,,Clear,0,2013-02-05 07:35:00
1:55 AM,5.0,1.4,85,29.84,10.0,Calm,Calm,-,N/A,,Clear,0,2013-02-05 07:55:00
2:15 AM,8.6,3.2,79,29.82,10.0,Calm,Calm,-,N/A,,Clear,0,2013-02-05 08:15:00
2:35 AM,15.8,8.6,73,29.81,10.0,SSW,3.5,-,N/A,,Scattered Clouds,200,2013-02-05 08:35:00
2:55 AM,15.8,10.4,79,29.79,2.5,SSW,5.8,-,N/A,Snow,Light Snow,200,2013-02-05 08:55:00
3:15 AM,15.8,12.2,86,29.77,2.5,SSW,3.5,-,N/A,Snow,Light Snow,210,2013-02-05 09:15:00
3:35 AM,15.8,12.2,86,29.78,2.5,WSW,3.5,-,N/A,Snow,Light Snow,240,2013-02-05 09:35:00
3:55 AM,17.6,14.0,86,29.76,7.0,SSW,4.6,-,N/A,Snow,Light Snow,200,2013-02-05 09:55:00
4:15 AM,17.6,14.0,86,29.75,5.0,SSW,4.6,-,N/A,Snow,Light Snow,200,2013-02-05 10:15:00
4:35 AM,17.6,14.0,86,29.75,10.0,SW,5.8,-,N/A,,Mostly Cloudy,220,2013-02-05 10:35:00
4:55 AM,19.4,14.0,80,29.75,10.0,SW,6.9,-,N/A,,Mostly Cloudy,220,2013-02-05 10:55:00
5:15 AM,19.4,14.0,80,29.74,10.0,SW,5.8,-,N/A,,Mostly Cloudy,220,2013-02-05 11:15:00
5:35 AM,19.4,14.0,80,29.73,10.0,SSW,6.9,-,N/A,,Overcast,210,2013-02-05 11:35:00
5:55 AM,19.4,14.0,80,29.74,10.0,SW,6.9,-,N/A,,Overcast,230,2013-02-05 11:55:00
6:15 AM,19.4,15.8,86,29.73,10.0,SSW,5.8,-,N/A,,Mostly Cloudy,210,2013-02-05 12:15:00
6:35 AM,19.4,15.8,86,29.73,10.0,SSW,5.8,-,N/A,,Mostly Cloudy,210,2013-02-05 12:35:00
6:55 AM,21.2,17.6,86,29.72,10.0,SSW,4.6,-,N/A,,Overcast,210,2013-02-05 12:55:00
7:15 AM,21.2,17.6,86,29.72,10.0,SSW,4.6,-,N/A,,Overcast,200,2013-02-05 13:15:00
7:35 AM,21.2,17.6,86,29.73,4.0,SSW,5.8,-,N/A,Snow,Light Snow,200,2013-02-05 13:35:00
7:55 AM,21.2,19.4,93,29.72,0.5,SSW,4.6,-,N/A,Snow,Snow,210,2013-02-05 13:55:00
8:15 AM,21.2,19.4,93,29.72,0.5,WSW,6.9,-,0.01,Snow,Snow,240,2013-02-05 14:15:00
8:35 AM,21.2,19.4,93,29.72,1.0,SW,4.6,-,0.01,Snow,Light Snow,220,2013-02-05 14:35:00
8:55 AM,23.0,19.4,86,29.73,1.2,WSW,5.8,-,0.01,Snow,Light Snow,250,2013-02-05 14:55:00
9:15 AM,23.0,21.2,93,29.73,1.5,SW,3.5,-,0.01,Snow,Light Snow,230,2013-02-05 15:15:00
9:35 AM,23.0,21.2,93,29.73,1.5,SW,4.6,-,0.01,Snow,Light Snow,230,2013-02-05 15:35:00
9:55 AM,24.8,21.2,86,29.73,3.0,SW,4.6,-,0.01,Snow,Light Snow,230,2013-02-05 15:55:00
10:15 AM,24.8,21.2,86,29.75,5.0,West,4.6,-,N/A,,Scattered Clouds,260,2013-02-05 16:15:00
10:35 AM,26.6,21.2,80,29.75,7.0,West,9.2,-,N/A,,Scattered Clouds,260,2013-02-05 16:35:00
10:55 AM,26.6,21.2,80,29.76,7.0,WSW,8.1,-,N/A,,Mostly Cloudy,240,2013-02-05 16:55:00
11:15 AM,26.6,21.2,80,29.76,7.0,WSW,6.9,-,N/A,,Overcast,250,2013-02-05 17:15:00
11:35 AM,26.6,23.0,86,29.77,7.0,West,4.6,-,N/A,,Overcast,270,2013-02-05 17:35:00
11:55 AM,28.4,23.0,80,29.77,7.0,WSW,5.8,-,N/A,,Overcast,250,2013-02-05 17:55:00
12:15 PM,28.4,23.0,80,29.77,7.0,WSW,4.6,-,N/A,,Overcast,250,2013-02-05 18:15:00
12:35 PM,28.4,23.0,80,29.78,7.0,WNW,6.9,-,N/A,,Overcast,290,2013-02-05 18:35:00
12:55 PM,28.4,24.8,86,29.79,7.0,WNW,8.1,-,N/A,,Overcast,300,2013-02-05 18:55:00
1:15 PM,28.4,24.8,86,29.80,7.0,West,9.2,-,N/A,,Overcast,280,2013-02-05 19:15:00
1:35 PM,30.2,24.8,80,29.80,7.0,WNW,9.2,-,N/A,,Mostly Cloudy,300,2013-02-05 19:35:00
1:55 PM,30.2,24.8,80,29.81,10.0,NW,13.8,18.4,N/A,,Mostly Cloudy,310,2013-02-05 19:55:00
2:15 PM,30.2,23.0,75,29.82,10.0,NW,12.7,19.6,N/A,,Mostly Cloudy,310,2013-02-05 20:15:00
2:35 PM,30.2,23.0,75,29.83,10.0,NW,12.7,16.1,N/A,,Mostly Cloudy,320,2013-02-05 20:35:00
2:55 PM,28.4,23.0,80,29.85,10.0,NNW,13.8,-,N/A,,Mostly Cloudy,340,2013-02-05 20:55:00
3:15 PM,28.4,21.2,74,29.87,10.0,NNW,15.0,20.7,N/A,,Mostly Cloudy,330,2013-02-05 21:15:00
3:35 PM,28.4,21.2,74,29.88,10.0,NNW,11.5,-,N/A,,Mostly Cloudy,330,2013-02-05 21:35:00
3:55 PM,28.4,21.2,74,29.89,10.0,WNW,13.8,17.3,N/A,,Mostly Cloudy,290,2013-02-05 21:55:00
4:15 PM,28.4,21.2,74,29.90,10.0,WNW,8.1,-,N/A,,Mostly Cloudy,300,2013-02-05 22:15:00
4:35 PM,28.4,19.4,69,29.91,10.0,NW,9.2,-,N/A,,Overcast,320,2013-02-05 22:35:00
4:55 PM,28.4,19.4,69,29.92,10.0,NNW,8.1,-,N/A,,Overcast,330,2013-02-05 22:55:00
5:15 PM,26.6,19.4,74,29.94,10.0,NNW,6.9,-,N/A,,Mostly Cloudy,330,2013-02-05 23:15:00
5:35 PM,26.6,19.4,74,29.96,10.0,NW,9.2,-,N/A,,Overcast,320,2013-02-05 23:35:00
5:55 PM,26.6,17.6,69,29.97,10.0,NNW,8.1,-,N/A,,Mostly Cloudy,330,2013-02-05 23:55:00
6:15 PM,24.8,17.6,74,29.98,10.0,NNW,4.6,-,N/A,,Overcast,330,2013-02-06 00:15:00
6:35 PM,23.0,15.8,74,29.98,10.0,NW,4.6,-,N/A,,Mostly Cloudy,320,2013-02-06 00:35:00
6:55 PM,23.0,15.8,74,30.00,10.0,WNW,3.5,-,N/A,,Mostly Cloudy,290,2013-02-06 00:55:00
7:15 PM,17.6,14.0,86,30.01,10.0,Calm,Calm,-,N/A,,Scattered Clouds,0,2013-02-06 01:15:00
7:35 PM,14.0,14.0,100,30.02,10.0,Calm,Calm,-,N/A,,Scattered Clouds,0,2013-02-06 01:35:00
7:55 PM,10.4,8.6,92,30.03,7.0,Calm,Calm,-,N/A,,Scattered Clouds,0,2013-02-06 01:55:00
8:15 PM,10.4,10.4,100,30.04,3.0,Calm,Calm,-,N/A,,Clear,0,2013-02-06 02:15:00
8:35 PM,10.4,8.6,92,30.05,1.2,Calm,Calm,-,N/A,,Mist,0,2013-02-06 02:35:00
9:15 PM,8.6,5.0,85,30.06,4.0,Calm,Calm,-,N/A,,Clear,0,2013-02-06 03:15:00
9:35 PM,5.0,3.2,92,30.06,7.0,Calm,Calm,-,N/A,,Clear,0,2013-02-06 03:35:00
9:55 PM,5.0,3.2,92,30.07,7.0,Calm,Calm,-,N/A,,Clear,0,2013-02-06 03:55:00
10:15 PM,3.2,-0.4,85,30.07,10.0,Calm,Calm,-,N/A,,Clear,0,2013-02-06 04:15:00
10:35 PM,1.4,-0.4,92,30.08,10.0,Calm,Calm,-,N/A,,Clear,0,2013-02-06 04:35:00
10:55 PM,3.2,-0.4,85,30.08,10.0,Calm,Calm,-,N/A,,Clear,0,2013-02-06 04:55:00
11:15 PM,-0.4,-4.0,85,30.08,10.0,Calm,Calm,-,N/A,,Clear,0,2013-02-06 05:15:00
11:35 PM,-0.4,-4.0,85,30.09,10.0,Calm,Calm,-,N/A,,Clear,0,2013-02-06 05:35:00
11:55 PM,-0.4,-5.8,78,30.09,10.0,Calm,Calm,-,N/A,,Clear,0,2013-02-06 05:55:00